SCP
0 1 1 1 1 1 1 1 1 1 1 1 1 1 1 1 1 1 1 1 1 1 1 1 1 1 1 1 1 1 1 1 1 1 1 0 0 0
0 0 1 1 1 1 1 1 1 1 1 1 1 1 1 1 1 1 1 1 1 1 1 1 1 1 1 1 1 1 1 1 1 1 1 0 0 0
0 0 0 1 1 1 1 1 1 1 1 1 1 2 1 1 1 1 1 1 1 0 0 0 0 0 0 0 0 0 0 0 0 1 1 0 0 0
0 0 0 1 1 1 1 1 1 1 1 1 1 2 2 1 1 1 1 1 1 0 0 0 0 0 0 0 0 0 0 0 0 0 0 0 0 0
0 0 0 0 1 1 0 1 1 1 1 1 1 1 1 1 1 1 1 1 1 1 0 0 0 0 0 0 0 0 0 0 0 0 0 0 0 0
0 0 0 0 0 1 0 1 1 1 1 1 1 1 1 1 1 1 1 1 1 1 0 0 0 0 0 0 0 0 0 0 0 0 0 0 0 0
0 0 0 0 0 0 1 1 1 1 1 1 1 1 1 1 1 1 1 1 1 1 1 0 0 0 0 0 0 0 0 0 0 0 0 0 0 0
0 0 0 0 0 0 1 1 1 0 1 1 1 1 1 1 1 1 1 1 1 1 1 1 0 0 0 0 0 0 0 0 0 0 0 0 0 0
0 0 0 0 0 0 0 0 0 0 0 0 1 1 1 1 1 1 1 1 1 1 1 1 1 0 0 0 0 0 0 0 0 0 0 0 0 0
0 0 0 0 0 0 0 0 0 0 0 0 0 0 0 1 1 1 1 1 1 1 1 1 1 0 0 0 0 0 0 0 0 0 0 0 0 0
0 0 0 0 0 0 0 0 0 0 0 0 0 0 0 0 1 1 1 1 1 1 0 0 0 0 0 0 0 0 0 0 0 0 0 0 0 0
0 0 0 0 0 0 0 0 0 0 0 0 0 0 0 0 1 1 1 1 1 0 0 0 0 0 0 0 0 0 0 0 0 0 0 0 0 0
0 0 0 0 0 0 0 0 0 0 0 0 0 0 0 0 0 1 1 1 1 0 0 0 0 0 0 0 0 0 0 0 0 0 0 0 0 0
0 0 0 0 0 0 0 0 0 0 0 0 0 0 0 0 0 1 1 1 1 0 0 0 0 0 0 0 0 0 0 0 0 0 0 0 0 0
0 0 0 0 0 0 0 0 0 0 0 0 0 0 0 0 0 1 1 1 1 0 0 0 0 0 0 0 0 0 0 0 0 0 0 0 0 0
0 0 0 0 0 0 0 0 0 0 0 0 0 0 0 0 1 1 1 1 1 0 0 0 0 0 0 0 0 0 0 0 0 0 0 0 0 0
0 0 0 0 0 0 0 0 0 0 0 0 0 0 0 0 0 1 1 1 1 0 0 0 0 0 0 0 0 0 0 0 0 0 0 0 0 0
0 0 0 0 0 0 0 0 0 0 0 0 0 0 0 0 0 0 1 1 0 0 0 0 0 0 0 0 0 0 0 0 0 0 0 0 0 0
0 0 0 0 0 0 0 0 0 0 0 0 0 0 0 0 0 0 0 0 0 0 0 0 0 0 0 0 0 0 0 0 0 0 0 0 0 0
0 0 0 0 0 0 0 0 0 0 0 0 0 0 0 0 0 0 0 0 0 0 0 0 0 0 0 0 0 0 0 0 0 0 0 0 0 0
0 0 0 0 0 0 0 0 0 0 0 0 0 0 0 0 0 0 0 0 0 0 0 0 0 0 0 0 0 0 0 0 0 0 0 0 0 0
0 0 0 0 0 0 0 0 0 0 0 0 0 0 0 0 0 0 0 0 0 0 0 0 0 0 0 0 0 0 0 0 0 0 0 0 0 0
0 0 0 0 0 0 0 0 0 0 0 0 0 0 0 0 0 0 0 0 0 0 0 0 0 0 0 0 0 0 0 0 0 0 0 0 0 0
Wind_Speed
4 5 4 4 4 4 4 4 4 4 5 5 4 4 5 4 8 7 8 16 18 18 17 16 15 15 14 14 14 13 13 12 12 12 12 12 11 11
4 4 4 4 4 4 4 4 4 5 4 4 4 3 4 5 8 7 7 14 18 18 18 17 16 16 15 15 14 13 13 13 12 12 11 10 10 10
5 4 4 4 3 3 4 4 5 5 6 4 2 3 4 4 5 6 6 7 9 17 18 18 17 17 16 16 15 14 14 14 13 13 12 11 11 11
5 4 4 4 4 3 3 4 4 5 5 6 4 3 5 5 5 6 6 7 7 14 18 18 18 17 17 16 16 15 15 14 14 14 13 13 13 13
6 5 4 4 4 3 3 3 3 4 5 5 4 3 3 4 4 5 5 4 6 9 15 16 17 18 17 17 16 16 16 15 15 14 13 13 14 14
6 5 5 4 3 3 3 3 3 4 4 4 4 3 3 4 4 4 4 4 5 5 8 10 13 16 17 18 17 17 16 16 15 15 14 14 14 14
7 5 5 4 3 3 2 2 3 2 3 3 3 3 3 4 5 4 5 4 4 4 5 6 8 8 11 15 18 18 17 17 16 16 15 15 14 14
7 5 5 3 3 4 5 5 4 4 4 3 3 4 5 5 4 5 5 5 4 5 6 6 7 8 8 9 14 19 19 18 17 17 16 16 15 15
7 5 5 4 4 3 4 5 6 8 9 5 5 5 5 5 6 6 6 5 4 5 6 5 6 7 7 9 18 20 20 20 19 18 18 17 16 16
5 5 5 4 4 5 4 4 4 3 5 5 5 5 4 4 5 6 6 4 2 3 4 4 4 4 5 7 17 20 19 19 20 20 19 18 17 16
5 5 5 4 6 7 4 4 4 3 3 3 4 4 5 5 4 4 5 5 4 3 2 3 4 3 3 4 10 18 18 18 18 19 20 19 17 15
5 4 4 5 7 7 4 4 4 4 4 3 2 3 3 4 7 6 6 6 4 3 4 4 4 4 3 2 5 9 11 14 16 17 19 18 18 10
4 4 3 6 8 7 5 3 4 5 4 3 3 2 2 2 3 4 5 6 5 3 6 5 5 4 4 4 3 5 8 7 8 10 15 18 17 12
4 4 3 7 8 8 5 5 7 6 3 3 2 2 2 2 3 3 4 4 4 5 8 7 5 6 6 5 4 5 6 7 7 7 8 13 13 11
4 7 9 10 9 6 6 7 5 3 2 2 2 2 2 2 2 2 3 3 4 5 7 5 7 7 6 6 6 6 5 6 7 8 9 9 8 7
4 7 9 8 6 7 6 4 3 2 2 2 1 1 1 0 0 2 3 3 3 3 3 4 7 9 5 6 7 7 6 8 9 8 8 7 7 7
5 4 4 4 3 3 3 2 2 1 1 1 1 1 0 0 0 1 3 3 3 4 4 3 4 4 5 7 8 7 7 6 7 8 8 7 8 8
3 4 5 4 4 3 3 2 2 1 1 1 1 1 1 1 1 1 2 3 4 4 4 4 5 5 4 2 3 8 7 6 7 7 6 7 7 7
3 5 5 5 4 3 3 2 2 2 2 1 1 1 1 1 2 2 3 3 3 4 4 5 5 5 6 4 3 4 7 7 7 7 6 5 6 7
5 6 6 5 4 4 3 3 3 2 2 2 2 2 2 2 2 3 3 4 4 4 4 4 5 5 5 6 5 4 7 7 7 7 6 4 3 3
5 6 6 5 4 4 4 3 3 3 3 3 3 3 3 3 3 3 4 6 5 4 5 5 4 5 3 4 4 3 3 4 6 6 7 5 4 4
6 6 5 5 5 4 4 3 3 3 4 4 4 4 4 4 4 5 5 5 4 4 4 3 4 4 3 4 5 5 4 3 2 3 5 6 6 7
7 6 5 5 5 4 4 4 5 4 4 4 4 5 5 4 4 4 5 5 5 5 5 4 4 3 3 4 5 4 6 6 4 3 2 5 6 6
Wind_Direction
278 271 254 245 243 238 229 216 208 219 229 223 217 215 203 189 171 184 181 190 190 189 189 190 190 190 190 191 191 191 187 183 178 175 177 179 180 178
274 267 262 247 242 240 238 233 221 215 232 224 213 208 200 198 182 187 194 189 195 192 191 191 190 188 187 185 185 182 178 175 172 171 173 176 178 174
294 285 278 266 249 241 237 231 228 218 233 244 224 209 197 205 190 194 189 183 195 197 193 192 190 187 184 182 181 178 175 173 171 171 173 174 172 167
301 294 288 287 273 255 244 240 234 223 220 235 230 211 209 203 193 196 195 192 190 197 196 193 191 186 183 180 177 175 173 172 171 171 174 176 173 166
312 308 298 288 276 271 261 249 243 239 225 224 230 214 209 197 189 196 194 190 194 192 194 194 190 185 181 178 175 173 172 171 170 169 171 172 167 165
311 306 301 288 273 277 272 262 253 246 238 227 222 214 207 197 186 192 195 190 192 184 188 190 188 183 180 177 175 172 171 170 169 168 168 166 165 165
312 309 306 296 288 279 277 273 267 252 248 235 226 215 206 189 196 188 194 183 190 178 172 181 181 184 183 181 178 174 172 171 170 169 166 163 161 161
314 313 308 301 291 278 272 268 256 249 245 237 229 222 217 204 196 192 185 178 195 181 179 187 178 183 183 183 180 175 173 172 169 166 162 160 159 159
314 318 321 333 341 322 289 276 264 253 239 234 237 233 224 210 195 197 195 188 188 171 168 186 180 187 179 178 175 174 173 171 168 165 164 162 160 160
320 330 334 349 6 356 332 313 295 274 250 234 233 240 238 220 201 201 195 177 152 161 156 170 168 171 162 169 173 172 171 170 169 166 165 162 159 158
330 343 343 349 354 349 332 318 314 305 288 250 243 247 247 235 205 179 176 176 183 176 156 149 145 132 141 164 170 170 168 167 167 167 165 161 158 156
326 333 357 356 345 345 328 316 315 318 326 306 269 261 247 228 211 201 192 186 172 172 169 151 147 135 130 128 157 165 162 162 163 166 165 162 158 156
321 324 330 344 341 335 324 300 297 302 300 292 279 257 246 223 210 204 198 190 181 175 168 150 149 140 134 134 146 163 161 157 161 166 168 166 166 164
298 306 316 327 325 320 311 297 301 307 292 289 282 273 260 238 213 202 198 193 184 171 168 158 148 157 143 140 149 152 159 160 161 165 169 171 174 173
282 298 300 298 303 303 290 293 297 289 281 284 285 276 265 252 205 172 153 135 123 144 161 163 149 152 148 146 150 151 151 166 169 166 169 174 179 176
298 304 300 283 276 278 286 283 270 268 270 276 276 282 302 1 183 155 143 134 126 125 128 144 153 153 148 145 150 156 156 163 172 171 168 174 181 187
325 305 293 279 261 261 268 265 273 284 279 277 285 291 307 103 96 131 139 139 142 148 142 129 118 115 132 146 154 161 159 160 168 169 168 177 190 194
309 288 289 286 275 262 264 268 263 260 252 238 239 214 200 176 150 125 136 145 147 147 147 145 139 123 101 65 146 161 165 166 165 168 165 174 192 197
255 263 270 272 272 262 251 245 246 240 217 207 216 212 187 171 159 156 153 149 148 149 152 153 156 152 152 156 176 177 166 164 164 171 177 175 188 196
232 246 255 259 260 261 252 240 232 226 209 204 201 200 192 181 172 172 169 167 159 152 157 166 175 172 167 162 160 174 180 165 166 175 178 174 167 167
250 247 246 247 246 248 245 239 229 219 209 202 203 198 195 187 184 180 174 172 166 166 176 184 188 170 133 120 124 135 159 172 168 169 169 168 175 183
250 254 252 246 245 243 240 235 235 229 217 210 205 200 197 192 189 184 179 176 178 175 174 166 158 159 160 160 161 158 156 149 131 148 168 171 170 189
245 248 248 244 241 240 236 235 235 233 226 216 209 200 195 194 191 183 180 180 175 174 162 157 159 163 171 166 162 160 161 165 162 163 206 196 168 146